Temperature
19 19 19 18 19 19 19 19 19 19 19 20 20 20 20 20 20 20 20 20 20 19 19 19 19 19 19 19 19 19 19 19 19 19 19 18 18 18 18 18 18 19 19
19 19 18 18 18 18 19 19 19 19 19 19 19 19 19 19 19 19 19 19 19 19 19 19 19 19 19 19 19 18 18 18 18 18 18 18 18 18 18 18 18 18 19
18 18 18 18 18 18 18 18 19 19 19 19 19 19 19 19 19 19 19 19 19 19 19 19 19 19 19 19 18 18 18 18 18 18 18 18 18 18 18 18 18 18 18
18 18 18 18 18 18 18 18 18 18 18 18 18 18 18 18 18 19 19 19 19 19 19 19 19 19 19 18 18 18 18 18 18 18 18 18 18 18 18 18 18 18 18
18 18 18 18 18 18 18 18 18 18 18 18 18 18 18 18 18 18 18 18 19 19 19 19 19 19 18 18 18 18 18 18 18 18 18 18 18 18 18 18 18 18 18
18 18 18 18 18 18 17 17 17 17 17 17 17 17 17 18 18 18 18 18 18 18 18 18 18 18 18 18 18 18 18 18 18 18 18 18 18 18 18 18 18 18 18
18 18 18 18 18 17 17 17 17 17 17 17 17 17 17 17 17 17 17 18 18 18 18 18 18 18 18 18 18 18 18 18 18 18 18 18 18 18 18 18 18 18 18
18 18 18 17 17 17 17 17 17 17 17 17 17 17 17 17 17 17 17 17 18 18 18 18 18 18 18 18 18 18 18 18 18 18 18 18 18 18 18 18 18 18 18
18 18 17 17 17 17 17 17 16 16 16 16 16 17 17 17 17 17 17 17 17 17 17 17 18 18 18 18 18 18 18 17 18 18 18 18 18 18 18 18 18 18 18
18 17 17 17 16 16 16 16 16 16 16 16 16 16 16 16 17 17 17 17 17 17 17 17 17 17 18 18 17 17 17 17 18 18 18 18 18 18 18 18 18 18 18
18 17 17 16 16 16 16 15 15 15 15 15 16 16 16 16 16 16 17 17 17 17 17 17 17 17 17 17 17 17 17 17 18 18 18 18 18 18 18 18 18 18 18
17 17 16 16 15 15 15 15 15 15 15 15 15 15 15 16 16 16 16 16 16 17 17 17 17 17 17 17 17 17 17 17 17 17 18 18 18 18 18 18 18 18 18
17 17 16 15 15 15 15 14 14 14 15 15 15 15 15 15 15 16 16 16 16 16 16 16 17 17 17 17 17 17 17 17 17 18 18 18 18 18 18 18 18 18 18
17 16 16 15 15 14 14 14 14 14 14 14 14 15 15 15 15 15 15 15 16 16 16 16 16 16 17 17 17 17 17 17 17 18 17 17 17 18 18 18 18 18 18
17 16 15 15 15 14 14 14 14 14 14 14 14 14 14 15 15 15 15 15 15 15 16 16 16 16 16 17 17 17 17 17 17 17 17 17 17 17 18 18 18 18 18
16 16 15 15 14 14 14 14 14 14 14 14 14 14 14 14 14 15 15 15 15 15 15 16 16 16 16 16 16 17 17 17 17 17 18 18 17 17 17 17 18 18 18
16 16 15 14 14 14 14 14 13 13 13 13 13 13 14 14 14 14 14 15 15 15 15 15 15 16 16 16 16 16 17 17 17 17 18 18 17 17 17 17 17 17 17
16 15 15 14 14 14 14 13 13 13 13 13 13 13 13 13 14 14 14 14 14 15 15 15 15 15 15 16 16 16 16 17 17 17 17 17 17 17 17 17 17 17 17
16 15 15 14 14 14 13 13 13 13 13 13 13 13 13 13 13 13 13 14 14 14 14 14 15 15 15 15 16 16 16 16 17 17 17 17 18 17 17 17 17 17 17
16 15 14 14 13 13 13 13 13 13 13 13 13 13 13 13 13 13 13 13 13 14 14 14 14 15 15 15 15 16 16 16 16 17 17 17 17 17 17 17 17 17 17
16 15 14 14 13 13 13 13 13 12 12 12 12 12 12 12 13 13 13 13 13 13 13 14 14 14 14 15 15 15 16 16 16 17 17 17 17 17 17 17 17 17 17
15 15 14 14 13 13 13 12 12 12 12 12 12 12 12 12 12 12 12 13 13 13 13 13 13 14 14 14 14 15 15 16 16 16 17 17 17 17 17 17 17 17 17
15 15 14 14 13 13 13 12 12 12 12 12 12 12 12 12 12 12 12 12 12 12 13 13 13 13 13 14 14 14 15 15 15 16 16 16 17 17 17 17 17 17 17
16 15 14 14 13 13 13 12 12 12 12 12 12 12 12 12 12 12 12 12 12 12 12 12 13 13 13 13 13 14 14 14 15 15 15 16 16 16 16 17 17 17 17
15 15 14 14 13 13 13 13 12 12 12 12 12 12 12 12 12 12 12 12 12 12 12 12 12 12 13 13 13 13 13 14 14 14 15 15 16 16 16 16 16 17 17
15 15 14 14 13 13 13 13 12 12 12 12 12 12 12 11 12 12 12 12 12 12 12 12 12 12 12 12 13 13 13 13 13 13 14 14 15 16 16 16 16 16 17
Wind_Speed
2 4 6 7 7 7 6 6 6 6 6 6 7 7 7 7 7 6 6 5 5 4 4 3 3 4 4 4 5 5 5 5 5 5 5 5 5 5 6 6 7 6 8
3 4 7 6 6 5 5 4 4 4 4 4 5 5 5 6 6 6 5 5 4 4 3 3 3 3 3 3 3 4 4 4 4 4 4 4 4 4 5 6 6 6 8
3 4 5 5 4 4 4 3 3 3 3 4 4 4 5 5 6 6 6 5 5 4 4 3 3 2 2 2 2 2 3 3 3 3 3 2 2 4 5 6 7 7 8
3 3 3 4 4 4 4 4 4 4 4 5 5 5 6 6 6 6 6 6 6 6 5 4 4 3 2 2 1 1 2 1 1 2 3 2 1 3 5 6 6 7 7
3 2 1 2 1 1 2 2 4 5 5 6 7 7 7 8 8 8 8 7 7 7 6 6 5 4 4 3 2 1 1 1 2 2 3 3 2 3 5 6 6 7 7
2 1 0 1 2 2 3 3 4 5 5 6 7 8 8 8 9 9 9 8 8 8 7 7 6 5 5 4 3 2 1 0 2 2 2 3 3 4 5 6 6 7 7
2 2 3 3 3 4 4 4 5 5 6 6 7 7 8 8 8 9 9 9 9 9 9 8 7 7 6 5 4 3 2 1 2 2 2 3 4 5 6 7 7 7 7
2 3 4 4 4 4 5 5 5 5 6 6 7 8 8 8 9 9 9 9 9 9 9 9 8 8 7 7 6 5 3 2 2 2 3 4 5 5 6 7 8 8 7
3 2 3 4 5 6 6 6 6 6 6 7 7 7 8 8 9 9 9 9 10 10 10 9 9 9 8 8 7 6 5 3 2 2 3 4 6 6 7 8 8 8 8
2 2 3 4 5 6 6 7 7 7 7 7 7 7 7 7 8 8 9 8 9 9 10 10 9 9 9 8 8 7 6 3 2 3 3 5 7 6 8 8 8 8 8
2 2 3 3 5 5 5 6 7 7 8 8 8 8 7 6 6 6 8 9 9 9 9 9 9 9 8 7 7 7 5 2 3 3 4 6 8 7 8 9 9 9 8
0 1 2 3 3 4 5 5 6 6 7 6 6 7 6 5 5 6 7 8 8 8 7 7 7 7 6 4 5 5 3 3 3 4 6 7 8 8 8 9 9 9 9
1 1 1 2 3 3 3 4 4 5 5 6 6 6 5 4 5 4 4 6 6 6 4 3 3 3 2 3 3 2 3 3 4 5 6 8 8 8 9 10 10 9 9
2 1 1 1 2 3 3 3 3 3 3 4 5 6 4 2 3 3 2 4 3 3 2 2 1 2 2 3 3 3 3 3 4 5 7 9 9 9 10 11 11 10 9
2 1 1 1 2 2 3 3 3 3 3 4 5 5 4 2 3 2 2 2 3 2 2 1 1 2 2 2 3 3 3 4 4 5 5 8 9 9 10 11 12 11 10
3 2 0 1 2 2 2 2 2 3 3 4 5 6 5 3 2 2 3 3 2 2 2 1 2 2 2 2 3 3 3 4 4 3 5 6 8 9 11 12 12 12 11
3 2 1 1 2 3 3 3 2 3 3 3 4 6 6 5 3 2 2 3 3 3 2 1 1 1 1 2 2 3 3 3 3 3 3 4 5 7 9 12 12 12 12
3 1 1 1 2 2 3 3 2 3 3 3 4 6 6 6 4 2 2 3 3 3 1 1 0 0 1 1 2 2 2 2 2 2 2 3 3 4 6 10 12 13 12
3 2 1 1 2 2 3 3 3 3 3 3 4 5 6 6 6 3 2 3 4 2 2 1 0 0 0 1 2 2 2 2 2 2 2 3 3 4 4 7 11 13 13
2 2 1 1 2 2 3 3 3 4 3 4 4 4 6 6 6 4 2 3 3 3 2 2 1 0 0 1 2 1 2 2 2 2 3 2 3 4 4 5 6 9 12
2 2 1 1 1 1 2 2 2 3 3 3 4 6 6 6 6 4 3 3 3 3 3 2 1 1 1 1 0 1 1 1 2 3 3 2 2 3 4 5 6 7 8
3 3 2 2 2 1 0 0 0 1 2 2 3 4 6 6 5 4 4 3 3 3 4 3 2 1 1 1 1 1 1 2 2 1 2 3 3 2 3 5 6 7 8
5 5 4 4 3 2 0 1 2 2 3 4 4 4 5 6 5 4 4 3 3 2 2 3 2 1 1 1 1 1 1 1 2 2 1 2 2 2 2 2 4 7 9
7 5 5 4 3 2 0 1 1 1 1 2 3 3 5 5 5 4 4 3 3 2 2 2 2 1 1 0 1 1 0 1 0 2 2 1 1 2 2 2 3 5 8
7 6 5 4 4 2 1 1 1 1 1 2 2 4 4 4 5 5 4 3 3 2 2 2 2 2 1 1 0 0 1 1 0 1 2 3 2 2 2 3 3 3 6
5 5 5 5 5 3 2 2 2 2 2 2 3 3 4 3 4 5 4 3 3 2 2 2 2 2 1 0 0 0 0 0 0 1 1 2 2 3 3 3 4 3 4
Wind_Direction
222 216 195 174 162 154 150 149 153 153 151 149 147 146 148 148 147 146 145 142 138 134 127 119 113 109 106 103 100 99 99 100 99 105 105 101 104 110 109 115 118 121 124
190 199 193 179 173 166 162 165 171 172 172 172 171 169 170 171 171 171 168 167 165 160 158 150 143 131 120 116 111 105 103 99 100 106 106 104 111 121 124 125 128 134 132
151 177 189 185 181 182 182 189 202 204 206 209 210 208 206 203 198 196 193 190 190 187 189 185 177 166 146 132 125 113 106 101 99 105 104 95 117 139 138 138 138 139 136
136 157 194 197 196 199 205 216 228 235 238 242 242 238 235 231 225 219 215 210 209 206 205 201 198 198 187 169 160 145 115 104 110 118 123 137 165 160 153 150 147 142 141
108 120 220 230 231 241 242 250 259 261 258 256 256 255 251 246 242 235 229 225 223 220 218 214 210 213 214 213 220 212 150 113 98 110 138 157 180 176 165 162 161 151 148
80 86 298 295 306 304 292 284 283 284 286 283 279 273 264 255 250 246 240 235 232 230 228 225 223 221 225 226 231 238 227 150 97 113 146 172 192 192 178 171 166 159 155
77 36 6 355 344 331 330 322 310 305 301 296 291 289 283 274 267 259 253 246 242 238 236 232 231 230 232 233 234 241 239 217 140 148 175 190 206 206 191 178 167 161 162
86 38 16 2 2 351 342 334 325 318 314 311 306 300 296 292 285 275 267 257 250 247 243 239 232 233 238 237 237 240 240 237 171 178 196 204 219 214 195 184 174 171 172
57 39 10 4 5 3 354 343 336 327 322 318 316 315 309 299 293 290 284 274 264 255 249 246 242 239 240 242 240 242 242 228 175 195 210 211 226 217 199 189 181 178 176
33 16 359 2 4 359 351 348 347 342 333 325 322 316 311 305 302 300 296 288 281 273 261 251 245 244 244 246 245 246 247 235 205 215 222 228 232 222 202 191 185 185 184
27 11 9 3 357 353 347 359 358 351 347 345 340 330 327 320 307 299 297 293 282 277 271 263 252 247 248 247 249 250 250 228 208 222 232 243 237 227 207 194 190 187 185
325 350 14 2 356 1 1 1 356 351 348 346 341 337 333 327 316 308 306 305 297 286 278 271 264 257 250 243 250 258 252 236 224 235 242 246 238 225 211 199 193 187 184
188 61 19 355 357 5 356 352 350 346 347 348 345 338 336 339 335 332 322 316 310 301 300 289 276 251 226 209 215 226 239 232 229 241 254 252 241 225 216 203 194 188 188
137 132 359 355 2 0 360 350 352 352 352 356 351 350 347 339 332 329 319 310 306 300 294 288 263 239 213 210 207 212 230 233 232 235 250 254 242 230 218 205 196 193 190
162 201 307 356 8 357 0 352 12 356 357 359 360 2 360 338 327 325 316 317 305 293 273 264 254 234 217 209 211 203 219 238 242 235 245 257 247 234 219 207 199 197 195
185 205 255 13 13 11 15 8 358 358 3 11 5 358 1 350 329 329 326 324 318 304 283 260 242 232 224 209 219 211 220 235 240 237 240 255 256 239 222 210 203 201 199
191 203 231 184 31 22 18 7 9 8 16 13 2 3 7 2 349 341 332 334 325 320 316 295 277 230 226 218 222 224 219 229 235 231 231 238 253 241 223 212 205 203 203
176 189 273 55 43 20 17 4 5 18 21 8 1 7 8 6 5 0 353 340 336 341 351 342 16 239 234 221 229 237 232 230 233 228 218 222 224 232 224 214 206 205 206
174 178 159 30 17 8 12 14 18 21 18 10 10 9 4 7 11 14 4 349 351 351 356 336 59 172 259 259 242 229 230 237 246 246 229 217 208 211 213 219 212 209 208
160 164 138 14 353 0 8 15 14 16 9 10 8 4 5 7 11 13 6 3 6 9 3 2 354 46 284 277 267 253 236 239 243 241 239 221 208 209 206 210 212 214 215
160 173 195 253 318 2 17 13 8 352 340 350 357 5 9 9 10 14 14 11 15 21 6 3 6 23 3 340 15 333 308 253 233 232 226 222 218 216 205 206 208 208 215
191 202 222 239 267 292 293 280 268 300 310 308 324 354 10 8 6 16 18 11 11 18 19 19 26 27 354 20 62 66 349 341 315 265 216 219 220 208 206 213 210 210 211
208 212 216 228 244 260 332 45 28 20 2 357 352 348 345 354 5 14 12 10 11 24 14 4 17 57 11 352 27 115 134 235 303 318 270 227 212 204 209 201 214 219 217
216 215 221 228 240 249 183 97 89 71 339 303 308 318 329 348 1 11 14 12 13 18 14 350 24 24 87 19 343 4 183 193 172 326 328 328 268 229 232 236 227 224 221
211 211 220 230 245 245 217 186 155 203 255 293 314 334 344 346 356 3 6 8 10 10 11 14 15 24 59 142 243 349 14 21 96 188 306 331 334 285 247 240 235 229 224
217 218 219 227 246 246 236 227 217 235 262 308 327 337 338 337 341 352 357 1 359 360 2 8 17 24 19 48 99 126 154 192 219 181 244 285 293 289 268 248 238 233 230
Height
1522 1523 1524 1525 1527 1527 1528 1529 1530 1530 1531 1531 1531 1531 1531 1531 1531 1531 1531 1531 1531 1531 1531 1531 1531 1530 1530 1530 1530 1529 1529 1529 1529 1529 1529 1529 1530 1530 1530 1531 1531 1532 1532
1522 1523 1525 1526 1527 1528 1529 1529 1529 1530 1530 1530 1530 1530 1530 1530 1530 1531 1530 1530 1530 1530 1530 1530 1530 1530 1530 1530 1530 1530 1529 1529 1529 1529 1529 1530 1530 1530 1531 1531 1532 1532 1533
1523 1524 1525 1526 1527 1528 1528 1529 1529 1529 1529 1529 1529 1530 1530 1529 1529 1529 1529 1529 1530 1530 1530 1530 1530 1530 1530 1530 1529 1529 1529 1529 1529 1530 1530 1530 1530 1530 1531 1532 1532 1533 1533
1524 1525 1526 1527 1527 1528 1528 1528 1528 1528 1528 1528 1528 1528 1528 1528 1528 1528 1528 1528 1528 1528 1529 1529 1529 1529 1529 1529 1529 1529 1529 1529 1529 1530 1530 1530 1530 1531 1531 1532 1532 1533 1534
1525 1526 1526 1527 1527 1527 1527 1527 1527 1527 1527 1527 1527 1527 1527 1526 1526 1526 1527 1527 1527 1527 1527 1527 1528 1528 1528 1528 1528 1529 1529 1529 1529 1529 1529 1530 1530 1530 1531 1532 1532 1533 1534
1526 1526 1526 1527 1527 1526 1526 1525 1525 1525 1525 1525 1524 1525 1525 1525 1525 1525 1525 1525 1525 1525 1526 1526 1526 1527 1527 1527 1528 1528 1528 1528 1529 1529 1529 1530 1530 1530 1531 1531 1532 1533 1535
1526 1526 1526 1526 1526 1525 1525 1524 1524 1523 1523 1522 1522 1522 1522 1523 1523 1523 1523 1523 1523 1524 1524 1524 1524 1525 1526 1526 1526 1527 1527 1528 1528 1528 1529 1529 1529 1530 1531 1531 1532 1533 1534
1526 1526 1526 1525 1525 1524 1523 1523 1522 1521 1521 1520 1520 1520 1520 1520 1520 1520 1520 1521 1521 1521 1522 1522 1523 1523 1524 1525 1525 1526 1526 1526 1527 1528 1528 1528 1529 1529 1530 1531 1532 1533 1534
1526 1526 1525 1525 1524 1523 1522 1521 1520 1520 1519 1518 1517 1517 1517 1517 1517 1517 1517 1518 1519 1519 1520 1520 1521 1522 1522 1523 1524 1524 1525 1525 1526 1527 1527 1528 1528 1529 1530 1530 1531 1533 1534
1526 1525 1525 1524 1523 1522 1521 1520 1519 1518 1517 1516 1515 1515 1514 1514 1514 1514 1515 1515 1516 1517 1517 1518 1518 1519 1520 1521 1522 1523 1523 1524 1525 1525 1526 1527 1528 1528 1529 1530 1531 1532 1533
1525 1525 1524 1523 1521 1520 1519 1518 1517 1516 1515 1514 1513 1513 1512 1512 1511 1511 1512 1513 1513 1514 1515 1515 1516 1517 1518 1519 1520 1521 1522 1522 1523 1524 1525 1526 1527 1527 1528 1529 1530 1531 1533
1525 1524 1523 1522 1521 1519 1518 1516 1515 1514 1513 1512 1511 1511 1510 1509 1509 1509 1509 1510 1510 1511 1512 1512 1514 1515 1516 1517 1518 1519 1520 1521 1522 1523 1524 1525 1526 1526 1527 1528 1529 1531 1532
1524 1523 1522 1521 1520 1518 1516 1515 1513 1512 1511 1510 1510 1509 1508 1507 1507 1507 1507 1507 1508 1508 1509 1510 1511 1512 1513 1515 1516 1517 1518 1519 1520 1521 1522 1523 1524 1525 1526 1527 1529 1530 1531
1524 1523 1522 1521 1519 1517 1515 1513 1512 1511 1510 1509 1508 1507 1506 1506 1505 1505 1505 1505 1505 1506 1507 1508 1509 1510 1511 1513 1514 1515 1516 1518 1519 1520 1521 1522 1523 1524 1525 1526 1528 1529 1531
1523 1522 1521 1520 1518 1516 1514 1513 1511 1509 1508 1507 1506 1505 1505 1504 1504 1503 1503 1503 1503 1504 1504 1505 1506 1507 1508 1510 1511 1513 1514 1516 1517 1518 1519 1521 1522 1523 1524 1526 1527 1528 1530
1523 1522 1521 1519 1517 1516 1514 1512 1510 1509 1508 1506 1505 1504 1503 1503 1502 1502 1502 1501 1501 1502 1502 1503 1503 1505 1506 1507 1508 1510 1511 1513 1515 1516 1518 1519 1520 1522 1523 1525 1526 1527 1529
1522 1521 1520 1518 1517 1515 1513 1511 1510 1508 1507 1506 1504 1503 1502 1501 1501 1500 1500 1500 1500 1500 1500 1501 1501 1502 1503 1504 1506 1507 1509 1510 1512 1514 1516 1517 1519 1521 1522 1523 1525 1526 1528
1522 1521 1519 1518 1516 1514 1513 1511 1509 1508 1507 1505 1504 1503 1501 1500 1499 1499 1498 1498 1498 1498 1498 1499 1499 1500 1501 1502 1503 1505 1506 1508 1510 1511 1513 1515 1517 1519 1520 1522 1524 1525 1527
1521 1520 1519 1517 1515 1514 1512 1510 1509 1507 1506 1505 1504 1503 1501 1500 1499 1498 1497 1497 1496 1496 1497 1497 1497 1498 1499 1500 1501 1502 1503 1505 1506 1508 1511 1513 1515 1517 1519 1520 1522 1524 1525
1520 1520 1518 1517 1515 1513 1511 1510 1509 1507 1506 1505 1504 1502 1501 1500 1499 1497 1497 1496 1495 1495 1495 1495 1496 1496 1497 1498 1499 1500 1501 1502 1504 1505 1507 1510 1512 1514 1516 1518 1520 1522 1524
1519 1519 1518 1516 1514 1513 1511 1510 1508 1507 1506 1505 1504 1502 1501 1500 1499 1497 1496 1495 1495 1494 1494 1494 1494 1494 1495 1496 1497 1498 1499 1500 1501 1502 1504 1506 1509 1511 1513 1516 1518 1520 1522
1519 1518 1517 1516 1514 1512 1511 1510 1509 1507 1506 1505 1504 1502 1501 1500 1498 1497 1496 1495 1494 1494 1493 1493 1493 1493 1493 1494 1495 1496 1496 1499 1498 1500 1501 1503 1506 1508 1510 1513 1515 1517 1520
1518 1517 1516 1515 1514 1512 1511 1510 1509 1508 1507 1505 1504 1503 1501 1500 1498 1497 1496 1495 1494 1493 1493 1492 1492 1492 1492 1493 1494 1495 1495 1496 1496 1498 1498 1500 1503 1504 1507 1509 1512 1514 1516
1516 1516 1516 1515 1514 1513 1511 1510 1509 1508 1507 1505 1504 1503 1501 1500 1498 1497 1496 1495 1494 1493 1492 1492 1492 1492 1492 1492 1493 1493 1495 1495 1496 1496 1498 1498 1500 1501 1503 1505 1508 1511 1513
1515 1515 1515 1514 1514 1513 1512 1511 1509 1508 1507 1506 1504 1503 1502 1500 1499 1497 1496 1495 1494 1493 1492 1492 1491 1491 1491 1491 1492 1492 1493 1493 1494 1495 1495 1496 1498 1499 1501 1503 1504 1507 1509
1514 1514 1514 1514 1513 1512 1512 1511 1509 1508 1507 1506 1504 1503 1501 1500 1499 1497 1496 1495 1494 1493 1492 1491 1491 1490 1490 1490 1490 1491 1491 1492 1493 1493 1494 1494 1495 1497 1498 1500 1501 1503 1505